Weather History for Ravenna, OH

Change the Weather History Date:

Sunday, May 12, 2013

  Actual Average (KCAK) Record (KCAK)
Temperature  
Mean Temperature 41 °F 58 °F  
Max Temperature 47 °F 68 °F 87 °F (1991)
Min Temperature 35 °F 47 °F 30 °F (1907)
Degree Days  
Heating Degree Days 24 8  
Month to date heating degree days 113  
Since 1 July heating degree days 5989  
Cooling Degree Days 0 1  
Month to date cooling degree days 6  
Year to date cooling degree days 12  
Moisture  
Dew Point 30 °F    
Average Humidity 64    
Maximum Humidity 100    
Minimum Humidity 42    
Precipitation  
Precipitation 0.00 in 0.14 in 1.48 in (2014)
Month to date precipitation 1.57  
Year to date precipitation 13.02  
Snow  
Snow 0.00 in 0.00 in - ()
Month to date snowfall 0.1  
Since 1 July snowfall 47.5  
Snow Depth -    
Sea Level Pressure  
Sea Level Pressure 29.95 in    
Wind  
Wind Speed 12 mph (West)    
Max Wind Speed 22 mph    
Max Gust Speed 31 mph    
Visibility 10 miles    
Events Rain    
T = Trace of Precipitation, MM = Missing Value Source: NWS Daily Summary

Daily Weather History Graph

Daily Weather History Graph

Search for Another Location

Airport:

Trip Planner

Search our weather history database for the weather conditions in past years. The results will help you decide how hot, cold, wet, or windy it might be!

Date:

Astronomy

May. 12, 2013 Rise Set
Actual Time 6:09 AM EDT 8:33 PM EDT
Civil Twilight 5:38 AM EDT 9:05 PM EDT
Nautical Twilight 4:59 AM EDT 9:43 PM EDT
Astronomical Twilight 4:16 AM EDT 10:26 PM EDT
Moon 8:03 AM EDT (5/12) 11:00 PM EDT (5/12)
Length of Visible Light 15h 26m
Length of Day
14h 24m
Waxing Crescent, 6% of the Moon is Illuminated
May 12
Waxing Crescent
May 18
First Quarter
May 25
Full
May 31
Last Quarter
Jun 8
New

Hourly Weather History & Observations

Time (EDT) Temp. Windchill Dew Point Humidity Pressure Visibility Wind Dir Wind Speed Gust Speed Precip Events Conditions
12:17 AM - - - N/A% 29.86 in 10.0 mi WNW 18.4 mph 23.0 mph N/A   Light Drizzle
12:37 AM 43.0 °F 35.7 °F 42.8 °F 99% 29.88 in 10.0 mi NW 15.0 mph 21.9 mph N/A   Overcast
12:56 AM 42.4 °F 35.3 °F 38.8 °F 87% 29.88 in 10.0 mi NW 13.8 mph 21.9 mph N/A   Overcast
1:17 AM 41.5 °F 35.9 °F 37.0 °F 84% 29.89 in 10.0 mi NW 9.2 mph 18.4 mph N/A   Unknown
1:37 AM 40.3 °F 33.4 °F 35.1 °F 82% 29.89 in 10.0 mi NW 11.5 mph 16.1 mph N/A   Unknown
1:56 AM 39.7 °F 35.6 °F 34.3 °F 81% 29.90 in 10.0 mi WNW 5.8 mph - N/A   Unknown
2:17 AM 39.2 °F 35.0 °F 34.7 °F 84% 29.90 in 10.0 mi WNW 5.8 mph - N/A   Unknown
2:37 AM 39.0 °F 35.7 °F 34.2 °F 83% 29.90 in 10.0 mi West 4.6 mph - N/A   Unknown
2:57 AM 37.8 °F 34.2 °F 33.8 °F 86% 29.90 in 10.0 mi West 4.6 mph - N/A   Unknown
3:17 AM 37.4 °F 32.8 °F 32.9 °F 84% 29.90 in 10.0 mi West 5.8 mph - N/A   Unknown
3:37 AM 37.4 °F 33.8 °F 32.9 °F 84% 29.90 in 10.0 mi West 4.6 mph - N/A   Unknown
3:57 AM 36.9 °F - 32.4 °F 84% 29.90 in 10.0 mi Calm Calm - N/A   Unknown
4:17 AM 35.2 °F - 33.8 °F 94% 29.89 in 10.0 mi Calm Calm - N/A   Clear
4:37 AM 35.2 °F 32.4 °F 35.4 °F 100% 29.89 in 10.0 mi SW 3.5 mph - N/A   Clear
4:57 AM 35.8 °F 30.9 °F 36.0 °F 100% 29.89 in 10.0 mi WSW 5.8 mph - N/A   Scattered Clouds
5:37 AM 37.4 °F 32.8 °F 37.6 °F 100% 29.89 in 10.0 mi WSW 5.8 mph - N/A   Scattered Clouds
5:56 AM 37.0 °F 33.3 °F 37.0 °F 100% 29.89 in 10.0 mi WSW 4.6 mph - N/A   Clear
6:17 AM 37.4 °F 32.8 °F 36.7 °F 97% 29.90 in 10.0 mi WSW 5.8 mph - N/A   Clear
6:37 AM 37.4 °F 31.4 °F 35.8 °F 94% 29.90 in 10.0 mi WSW 8.1 mph - N/A   Clear
6:57 AM 37.8 °F 31.3 °F 34.5 °F 88% 29.90 in 10.0 mi WSW 9.2 mph - N/A   Clear
7:17 AM 38.5 °F 31.6 °F 32.9 °F 80% 29.90 in 10.0 mi WSW 10.4 mph - N/A   Clear
7:37 AM 39.2 °F 32.5 °F 32.7 °F 78% 29.90 in 10.0 mi WSW 10.4 mph - N/A   Clear
7:57 AM 40.3 °F 34.4 °F 32.2 °F 73% 29.91 in 10.0 mi WSW 9.2 mph 17.3 mph N/A   Clear
8:17 AM 41.2 °F 36.0 °F 31.8 °F 69% 29.91 in 10.0 mi WSW 8.1 mph 18.4 mph N/A   Clear
8:37 AM 41.9 °F 35.0 °F 31.6 °F 67% 29.91 in 10.0 mi West 12.7 mph 21.9 mph N/A   Clear
8:56 AM 42.8 °F 35.8 °F 32.4 °F 67% 29.91 in 10.0 mi WSW 13.8 mph 20.7 mph N/A   Clear
9:17 AM 43.7 °F 36.9 °F 32.5 °F 65% 29.91 in 10.0 mi WSW 13.8 mph 19.6 mph N/A   Scattered Clouds
9:37 AM 43.9 °F 35.7 °F 31.8 °F 63% 29.91 in 10.0 mi West 19.6 mph 24.2 mph N/A   Mostly Cloudy
9:57 AM 44.6 °F 37.4 °F 30.2 °F 57% 29.92 in 10.0 mi West 16.1 mph 27.6 mph N/A   Mostly Cloudy
10:17 AM 45.3 °F 37.6 °F 28.8 °F 52% 29.92 in 10.0 mi West 19.6 mph 28.8 mph N/A   Mostly Cloudy
10:37 AM 44.8 °F 37.7 °F 28.8 °F 53% 29.92 in 10.0 mi West 16.1 mph 26.5 mph N/A   Overcast
10:57 AM 45.5 °F 38.1 °F 28.2 °F 51% 29.92 in 10.0 mi West 18.4 mph 24.2 mph N/A   Overcast
11:17 AM 44.1 °F 35.9 °F 27.1 °F 51% 29.93 in 10.0 mi West 19.6 mph 27.6 mph N/A   Mostly Cloudy
11:37 AM 46.6 °F - 29.1 °F 51% 29.93 in 10.0 mi West 21.9 mph 28.8 mph N/A   Overcast
11:56 AM 46.6 °F - 27.5 °F 47% 29.93 in 10.0 mi West 20.7 mph 27.6 mph N/A   Overcast
12:17 PM 45.1 °F 38.4 °F 27.5 °F 50% 29.94 in 10.0 mi West 15.0 mph 25.3 mph N/A   Overcast
12:37 PM 45.0 °F 37.1 °F 26.2 °F 48% 29.94 in 10.0 mi West 19.6 mph 26.5 mph N/A   Overcast
1:17 PM 45.9 °F 38.5 °F 28.6 °F 51% 29.95 in 10.0 mi West 18.4 mph 24.2 mph N/A   Overcast
1:37 PM 45.7 °F 38.6 °F 27.9 °F 50% 29.95 in 10.0 mi West 17.3 mph 23.0 mph N/A   Overcast
1:57 PM 45.9 °F 38.8 °F 26.4 °F 47% 29.95 in 10.0 mi West 17.3 mph 26.5 mph N/A   Overcast
2:17 PM 47.3 °F - 28.0 °F 47% 29.95 in 10.0 mi WSW 13.8 mph 25.3 mph N/A   Overcast
2:37 PM 47.5 °F - 28.6 °F 48% 29.96 in 10.0 mi West 12.7 mph 20.7 mph N/A   Overcast
2:57 PM 46.2 °F 39.0 °F 27.9 °F 49% 29.96 in 10.0 mi West 18.4 mph 25.3 mph N/A   Overcast
3:17 PM 46.6 °F - 27.0 °F 46% 29.96 in 10.0 mi West 18.4 mph 21.9 mph N/A   Overcast
3:37 PM 47.5 °F - 27.0 °F 45% 29.96 in 10.0 mi West 19.6 mph 26.5 mph N/A   Overcast
3:57 PM 47.5 °F - 26.1 °F 43% 29.96 in 10.0 mi West 20.7 mph 28.8 mph N/A   Mostly Cloudy
4:17 PM 46.8 °F - 24.8 °F 42% 29.96 in 10.0 mi West 19.6 mph 31.1 mph N/A   Overcast
4:36 PM 47.3 °F - 26.1 °F 44% 29.97 in 10.0 mi West 12.7 mph 25.3 mph N/A   Overcast
4:57 PM 46.8 °F - 26.4 °F 45% 29.97 in 10.0 mi West 15.0 mph 21.9 mph N/A   Overcast
5:17 PM 45.9 °F 39.4 °F 26.2 °F 46% 29.98 in 10.0 mi West 15.0 mph 24.2 mph N/A   Overcast
5:37 PM 46.4 °F 39.5 °F 26.8 °F 46% 29.98 in 10.0 mi WNW 17.3 mph 20.7 mph N/A   Overcast
5:57 PM 46.6 °F - 26.6 °F 46% 29.98 in 10.0 mi West 15.0 mph 21.9 mph N/A   Overcast
6:17 PM 46.6 °F - 27.1 °F 47% 29.98 in 10.0 mi West 13.8 mph 20.7 mph N/A   Overcast
6:37 PM 47.3 °F - 27.1 °F 46% 29.98 in 10.0 mi West 10.4 mph 18.4 mph N/A   Overcast
6:56 PM 47.1 °F - 25.5 °F 43% 29.98 in 10.0 mi West 13.8 mph 24.2 mph N/A   Overcast
7:17 PM 46.4 °F 40.1 °F 27.1 °F 47% 29.98 in 10.0 mi West 15.0 mph 26.5 mph N/A   Overcast
7:37 PM 46.4 °F 40.7 °F 26.1 °F 45% 29.98 in 10.0 mi West 12.7 mph 18.4 mph N/A   Overcast
7:56 PM 46.0 °F 41.0 °F 25.3 °F 44% 29.99 in 10.0 mi West 10.4 mph 20.7 mph N/A   Overcast
8:17 PM 45.9 °F 38.8 °F 24.8 °F 44% 29.99 in 10.0 mi West 17.3 mph 25.3 mph N/A   Overcast
8:37 PM 45.5 °F 39.9 °F 25.7 °F 46% 30.00 in 10.0 mi West 11.5 mph 17.3 mph N/A   Overcast
8:57 PM 45.1 °F 38.4 °F 26.1 °F 47% 30.00 in 10.0 mi West 15.0 mph 20.7 mph N/A   Overcast
9:17 PM 44.6 °F 37.8 °F 26.4 °F 49% 30.01 in 10.0 mi West 15.0 mph 21.9 mph N/A   Overcast
9:37 PM 43.7 °F 37.7 °F 28.9 °F 56% 30.03 in 10.0 mi WNW 11.5 mph - N/A   Overcast
9:56 PM 42.8 °F 34.5 °F 30.7 °F 62% 30.04 in 10.0 mi West 18.4 mph 23.0 mph N/A Rain Rain
10:17 PM 41.0 °F 34.3 °F 31.6 °F 69% 30.06 in 10.0 mi West 11.5 mph - N/A Rain Rain
10:37 PM 40.3 °F 34.4 °F 32.0 °F 72% 30.06 in 10.0 mi NW 9.2 mph 24.2 mph N/A   Overcast
10:57 PM 39.2 °F 33.6 °F 31.5 °F 74% 30.07 in 10.0 mi WNW 8.1 mph 16.1 mph N/A   Mostly Cloudy
11:17 PM 39.2 °F 31.6 °F 31.3 °F 73% 30.07 in 10.0 mi WNW 12.7 mph 16.1 mph N/A   Mostly Cloudy
11:37 PM 39.2 °F 32.5 °F 31.1 °F 73% 30.07 in 10.0 mi WNW 10.4 mph 16.1 mph N/A   Overcast
11:57 PM 39.2 °F 32.5 °F 30.9 °F 72% 30.07 in 10.0 mi WNW 10.4 mph 16.1 mph N/A   Light Drizzle